Regional Weather Roundup
Issued by NWS Northern Indiana

Home | Current Version | Previous Version | Graphics & Text | Print | Product List | Glossary On
Versions: 1 2 3 4 5 6 7 8 9 10 11 12 13 14 15 16 17 18 19 20 21 22 23 24 25 26 27 28 29 30 31 32 33 34 35 36 37 38 39 40 41 42 43 44 45 46 47 48 49 50
000
ASUS43 KIWX 212100
RWRIWX

KIWX WEATHER ROUNDUP
NATIONAL WEATHER SERVICE NORTHERN INDIANA
500 PM EDT THU AUG 21 2014

NOTE: "FAIR" INDICATES FEW OR NO CLOUDS BELOW 12,000 FEET WITH NO
SIGNIFICANT WEATHER AND/OR OBSTRUCTIONS TO VISIBILITY.

* THESE STATIONS ARE NOT UNDER NWS QUALITY CONTROL. THEY ALSO MAY NOT
  REPORT WEATHER SUCH AS PRECIPITATION OR FOG.

INZ001>027-212200-
NORTHERN INDIANA

CITY           SKY/WX    TMP DP  RH WIND       PRES   REMARKS
GARY*          CLOUDY    82  73  74 VRB6      29.94F
VALPARAISO     PTSUNNY   80  72  76 SE5       29.96F
KNOX*          PTSUNNY   79  72  79 E6        29.96F
SOUTH BEND     CLOUDY    79  71  76 S10       29.98F
ELKHART*       CLOUDY    79  68  69 S6        29.98
GOSHEN         CLOUDY    78  71  79 S7        29.99F
MONTICELLO*    PTSUNNY   84  75  73 SW8       29.95F
WARSAW*        CLOUDY    77  70  78 CALM      30.00F
ANGOLA*        PTSUNNY   79  70  73 W8        30.00S
FORT WAYNE     CLOUDY    77  71  82 W5        30.02R

$$
INZ028>050-212200-
CENTRAL INDIANA

CITY           SKY/WX    TMP DP  RH WIND       PRES   REMARKS
LAFAYETTE      PTSUNNY   85  74  69 SW9       29.95F
KOKOMO*        PTSUNNY   82  75  78 S7        29.98S
MUNCIE*        PTSUNNY   80  71  74 S9        30.00F
INDIANAPOLIS   PTSUNNY   85  73  67 SW10      29.99F

$$
MIZ043>046-050>051-056>058-064>065-071>073-077>080-212200-
SOUTHWEST LOWER MICHIGAN

CITY           SKY/WX    TMP DP  RH WIND       PRES   REMARKS
BATTLE CREEK   CLOUDY    78  71  79 SW9       29.98S
BENTON HARBOR  CLOUDY    76  72  87 CALM      29.96F
COLDWATER*     CLOUDY    78  71  79 SW6       29.99F
HILLSDALE*     CLOUDY    79  71  75 W8        30.01R
HOLLAND        CLOUDY    76  71  85 CALM      29.96F
GRAND RAPIDS   CLOUDY    77  73  87 N7        29.97F
KALAMAZOO      CLOUDY    76  72  87 S6        29.96F FOG
STURGIS*       CLOUDY    77  72  83 SW9       29.98F
THREE RIVERS*  FAIR      78  71  77 SW7       29.98F

$$
OHZ001>008-015>018-024>025-212200-
NORTHWEST OHIO

CITY           SKY/WX    TMP DP  RH WIND       PRES   REMARKS
DEFIANCE       CLOUDY    78  69  73 VRB6      30.01S
FINDLAY        CLOUDY    78  69  73 W13       30.00R
TOLEDO EXPRESS PTSUNNY   79  70  74 SW12      29.98S
TOLEDO METCALF MOSUNNY   80  69  69 SW14      29.99R
LIMA           LGT RAIN  73  69  87 SW10      30.01F

$$
&&



USA.gov is the U.S. government's official web portal to all federal, state and local government web resources and services.